TimeEST,TemperatureF,Dew PointF,Humidity,Sea Level PressureIn,VisibilityMPH,Wind Direction,Wind SpeedMPH,Gust SpeedMPH,PrecipitationIn,Events,Conditions,WindDirDegrees,DateUTC
12:58 AM,26.6,24.6,92,30.50,10.0,North,1.2,-,N/A,,Clear,350,2013-11-14 05:58:00
1:58 AM,23.7,21.4,91,30.49,10.0,Calm,Calm,-,N/A,,Clear,0,2013-11-14 06:58:00
2:58 AM,25.5,23.0,90,30.50,10.0,SSW,2.3,-,N/A,,Clear,200,2013-11-14 07:58:00
3:58 AM,24.1,22.1,92,30.50,10.0,North,1.2,-,N/A,,Clear,360,2013-11-14 08:58:00
4:58 AM,23.9,22.1,93,30.49,10.0,Calm,Calm,-,N/A,,Clear,0,2013-11-14 09:58:00
5:58 AM,21.9,19.8,91,30.50,10.0,NNW,2.3,-,N/A,,Clear,330,2013-11-14 10:58:00
6:58 AM,22.8,21.0,93,30.51,10.0,Calm,Calm,-,N/A,,Clear,0,2013-11-14 11:58:00
7:58 AM,26.8,23.7,88,30.53,10.0,NW,1.2,-,N/A,,Clear,320,2013-11-14 12:58:00
8:58 AM,37.0,30.0,76,30.54,10.0,Calm,Calm,-,N/A,,Clear,0,2013-11-14 13:58:00
9:58 AM,44.6,24.8,46,30.54,10.0,WNW,1.2,-,N/A,,Clear,290,2013-11-14 14:58:00
10:58 AM,50.0,15.8,26,30.53,10.0,SE,3.5,-,N/A,,Clear,140,2013-11-14 15:58:00
11:58 AM,52.3,13.8,22,30.51,10.0,Variable,3.5,-,N/A,,Clear,0,2013-11-14 16:58:00
12:58 PM,54.1,11.7,18,30.47,10.0,Variable,3.5,-,N/A,,Clear,0,2013-11-14 17:58:00
1:58 PM,57.0,13.3,18,30.43,10.0,NNE,1.2,-,N/A,,Clear,20,2013-11-14 18:58:00
2:58 PM,58.6,13.8,17,30.40,10.0,Variable,2.3,-,N/A,,Clear,0,2013-11-14 19:58:00
3:58 PM,58.1,14.5,18,30.38,10.0,Calm,Calm,-,N/A,,Clear,0,2013-11-14 20:58:00
4:58 PM,56.1,16.3,21,30.38,10.0,ENE,1.2,-,N/A,,Clear,60,2013-11-14 21:58:00
5:58 PM,46.8,22.8,39,30.39,10.0,ENE,1.2,-,N/A,,Clear,60,2013-11-14 22:58:00
6:58 PM,40.1,29.3,65,30.39,10.0,Calm,Calm,-,N/A,,Clear,0,2013-11-14 23:58:00
7:58 PM,37.9,28.4,69,30.37,10.0,North,2.3,-,N/A,,Clear,10,2013-11-15 00:58:00
8:58 PM,35.6,27.3,72,30.38,10.0,Calm,Calm,-,N/A,,Partly Cloudy,0,2013-11-15 01:58:00
9:58 PM,34.5,27.9,77,30.36,10.0,NNW,1.2,-,N/A,,Partly Cloudy,340,2013-11-15 02:58:00
10:58 PM,33.4,27.7,79,30.37,10.0,Calm,Calm,-,N/A,,Scattered Clouds,0,2013-11-15 03:58:00
11:58 PM,32.0,27.7,84,30.36,10.0,NNW,2.3,-,N/A,,Clear,330,2013-11-15 04:58:00